Content
SEND FEEDBACK

Daily
Averages
Monthly
Summary
United States of America

MANGILAO, GUAM


Home > North America > United States > Guam
Elevation: 18 meters     Latitude: 13 27N     Longitude: 144 49E

WEATHER
 
SELECT A DAY
Number of Records: 342,166;   Date Range: 1/1/95 - 8/12/14
 
SHARE

PRINT THIS DATA

[ ← Previous Day ]
WEATHER ALMANAC - 14 JANUARY, 2013
[ Next Day → ]
[ °F ]   °C
Weather ElementAverageHighLow
Temperature26.5 °C29.1 °C (2:55 pm)22.6 °C (5:55 pm)
Dewpoint21.7 °C23 °C (11:02 am)17.6 °C (5:55 pm)
Humidity74.9 %83 % (5:22 am)66 % (11:37 am)
Barometer1010.2 hPa1011.2 hPa (8:55 am)1008.5 hPa (1:55 pm)
Wind Speed22.4 km/h29.6 km/h (7:55 am)
Wind Gust38.9 km/h (11:03 am)
Weather ElementAverage
Visibility16.1 km
Wind DirectionENE (82.5 °)

Weather ElementTotal
Precipitation---
Cooling Degree Days7.6 (Base 18.3)
Growing Degree Days15.9 (Base 10)
Averaged from 51 records on 14 January, 2013
WEATHER CONDITIONS BREAKOUT
WIND DIRECTION BREAKOUT
WEATHER BY HOUR - 14 JANUARY, 2013
[ °F ]   °C
Local TimeTemperatureDewpointHumidityBarometerVisibilityWind DirectionWind SpeedGust SpeedPrecipitationEventsConditions
12:44 AM26 °C22 °C78 %1010.5 hPa16.1 kmEast (80°)24.1 km/hMostly Cloudy
12:53 AM26 °C21 °C74 %1010.5 hPa16.1 kmEast (80°)18.5 km/hMostly Cloudy
12:55 AM25.7 °C21.4 °C77 %1010.5 hPa16.1 kmEast (90°)16.7 km/hMostly Cloudy
12:56 AM26 °C21 °C74 %1010.5 hPa16.1 kmEast (90°)16.7 km/hMostly Cloudy
1:55 AM25.7 °C21.9 °C79 %1010.2 hPa16.1 kmENE (70°)20.4 km/hMostly Cloudy
2:55 AM25.6 °C22.2 °C81 %1009.8 hPa16.1 kmENE (70°)22.2 km/hMostly Cloudy
3:30 AM26 °C22 °C78 %1009.8 hPa16.1 kmENE (70°)25.9 km/hOvercast
3:48 AM26 °C22 °C78 %1009.8 hPa16.1 kmENE (70°)20.4 km/hOvercast
3:55 AM25.7 °C21.7 °C78 %1009.8 hPa16.1 kmENE (70°)20.4 km/hOvercast
4:55 AM25.6 °C21.7 °C79 %1010.2 hPa16.1 kmENE (70°)24.1 km/hMostly Cloudy
5:22 AM25 °C22 °C83 %1010.2 hPa16.1 kmENE (70°)24.1 km/hMostly Cloudy
5:24 AM25 °C22 °C83 %1010.2 hPa16.1 kmENE (70°)24.1 km/hMostly Cloudy
5:41 AM25 °C21 °C78 %1010.2 hPa16.1 kmENE (70°)24.1 km/hMostly Cloudy
5:44 AM25 °C21 °C78 %1010.2 hPa16.1 kmENE (70°)22.2 km/hMostly Cloudy
5:45 AM25 °C21 °C78 %1010.2 hPa16.1 kmEast (80°)25.9 km/hMostly Cloudy
5:51 AM25 °C21 °C78 %1010.2 hPa16.1 kmENE (70°)24.1 km/hMostly Cloudy
5:55 AM25 °C18.5 °C67 %1010.2 hPa16.1 kmENE (70°)20.4 km/hMostly Cloudy
6:55 AM25 °C21 °C78 %1010.5 hPa16.1 kmENE (70°)22.2 km/hOvercast
7:04 AM25 °C21 °C78 %1010.5 hPa16.1 kmENE (70°)22.2 km/hOvercast
7:05 AM26 °C21 °C74 %1010.5 hPa16.1 kmENE (70°)24.1 km/hOvercast
7:06 AM26 °C21 °C74 %1010.5 hPa16.1 kmENE (70°)22.2 km/hOvercast
7:10 AM25 °C20 °C74 %1010.5 hPa16.1 kmENE (70°)25.9 km/hOvercast
7:55 AM26.4 °C21.3 °C73 %1010.8 hPa16.1 kmENE (70°)29.6 km/hMostly Cloudy
8:55 AM27 °C21.6 °C72 %1011.2 hPa16.1 kmEast (90°)20.4 km/hPartly Cloudy
9:55 AM26.1 °C20.5 °C71 %1010.8 hPa16.1 kmEast (80°)24.1 km/hClear
10:55 AM27.9 °C22.4 °C72 %1010.2 hPa16.1 kmENE (70°)29.6 km/h37 km/hScattered Clouds
11:02 AM29 °C23 °C70 %1010.2 hPa16.1 kmENE (70°)24.1 km/hMostly Cloudy
11:03 AM29 °C23 °C70 %1010.2 hPa16.1 kmEast (80°)27.8 km/h38.9 km/hScattered Clouds
11:07 AM29 °C23 °C70 %1010.2 hPa16.1 kmENE (70°)27.8 km/h38.9 km/hMostly Cloudy
11:32 AM28 °C23 °C74 %1010.2 hPa16.1 kmENE (70°)27.8 km/h37 km/hScattered Clouds
11:37 AM29 °C22 °C66 %1010.2 hPa16.1 kmENE (70°)29.6 km/h37 km/hMostly Cloudy
11:39 AM29 °C22 °C66 %1010.2 hPa16.1 kmENE (70°)29.6 km/hScattered Clouds
11:55 AM28.6 °C21.8 °C66 %1009.8 hPa16.1 kmENE (70°)29.6 km/hPartly Cloudy
12:48 PM29 °C23 °C70 %1009.1 hPa16.1 kmEast (80°)24.1 km/hMostly Cloudy
12:55 PM28.5 °C22.7 °C71 %1009.1 hPa16.1 kmEast (80°)24.1 km/hMostly Cloudy
12:59 PM28 °C23 °C74 %1009.1 hPa16.1 kmEast (90°)24.1 km/hMostly Cloudy
1:01 PM28 °C23 °C74 %1009.1 hPa16.1 kmEast (80°)24.1 km/hMostly Cloudy
1:03 PM28 °C23 °C74 %1009.1 hPa16.1 kmEast (90°)25.9 km/hMostly Cloudy
1:55 PM28.5 °C23 °C72 %1008.5 hPa16.1 kmEast (90°)22.2 km/hScattered Clouds
2:55 PM29.1 °C22.1 °C66 %1008.8 hPa16.1 kmEast (90°)25.9 km/hPartly Cloudy
3:55 PM28.8 °C22 °C66 %1009.1 hPa16.1 kmEast (80°)22.2 km/hClear
4:55 PM25.7 °C20.3 °C72 %1009.5 hPa16.1 kmEast (90°)18.5 km/hClear
5:55 PM22.6 °C17.6 °C73 %1010.2 hPa16.1 kmEast (100°)18.5 km/hClear
6:55 PM25.8 °C21.8 °C78 %1010.2 hPa16.1 kmEast (100°)13 km/hClear
7:55 PM25.7 °C22 °C80 %1010.2 hPa16.1 kmEast (100°)13 km/hPartly Cloudy
8:55 PM25.7 °C22.2 °C81 %1010.5 hPa16.1 kmESE (110°)16.7 km/hScattered Clouds
9:16 PM26 °C22 °C78 %1010.5 hPa16.1 kmESE (110°)18.5 km/hMostly Cloudy
9:55 PM25.8 °C22 °C79 %1010.5 hPa16.1 kmESE (110°)18.5 km/hOvercast
10:17 PM26 °C22 °C78 %1010.5 hPa16.1 kmESE (120°)14.8 km/hScattered Clouds
10:55 PM25.4 °C21.7 °C80 %1010.5 hPa16.1 kmSE (130°)13 km/hClear
11:55 PM25 °C22 °C83 %1010.5 hPa16.1 kmSE (140°)13 km/hClear
Hourly data recorded from PGUA, located 0 kilometers away from Mangilao, Guam







STORIES FROM OUR PARTNERS